EN

Hourly Weather Laharpur

Today, 24 July, Saturday

Time Temperature Precipitation Wind Pressure Humidity
00:00 +34°C° 0 mm 2 mps 736 mmHg 70%
01:00 +32°C° 0 mm 2 mps 736 mmHg 72%
02:00 +32°C° 0 mm 2 mps 736 mmHg 74%
03:00 +32°C° 0.5 mm 2 mps 736 mmHg 75%
04:00 +31°C° 0.5 mm 3 mps 736 mmHg 76%
05:00 +32°C° 0.5 mm 4 mps 736 mmHg 76%
06:00 +33°C° 0.2 mm 4 mps 737 mmHg 73%
07:00 +34°C° 0.2 mm 4 mps 737 mmHg 69%
08:00 +35°C° 0.2 mm 5 mps 737 mmHg 66%
09:00 +36°C° 0 mm 5 mps 737 mmHg 62%
10:00 +38°C° 0 mm 6 mps 737 mmHg 58%
11:00 +39°C° 0 mm 6 mps 737 mmHg 53%
12:00 +39°C° 0 mm 6 mps 737 mmHg 52%
13:00 +39°C° 0 mm 6 mps 736 mmHg 51%
14:00 +40°C° 0 mm 5 mps 736 mmHg 50%
15:00 +39°C° 0 mm 5 mps 736 mmHg 51%
16:00 +38°C° 0 mm 4 mps 735 mmHg 53%
17:00 +37°C° 0 mm 3 mps 735 mmHg 55%
18:00 +36°C° 0 mm 3 mps 735 mmHg 59%
19:00 +35°C° 0 mm 3 mps 736 mmHg 64%
20:00 +34°C° 0 mm 3 mps 736 mmHg 69%
21:00 +34°C° 0.1 mm 2 mps 736 mmHg 69%
22:00 +34°C° 0.1 mm 2 mps 736 mmHg 70%
23:00 +32°C° 0.1 mm 2 mps 737 mmHg 71%

Tomorrow, 25 July, Sunday

Time Temperature Precipitation Wind Pressure Humidity
00:00 +32°C° 0 mm 2 mps 736 mmHg 73%
01:00 +33°C° 0 mm 3 mps 736 mmHg 75%
02:00 +31°C° 0 mm 3 mps 736 mmHg 76%
03:00 +32°C° 0 mm 4 mps 736 mmHg 77%
04:00 +30°C° 0 mm 4 mps 736 mmHg 78%
05:00 +30°C° 0 mm 5 mps 736 mmHg 79%
06:00 +32°C° 0 mm 5 mps 737 mmHg 75%
07:00 +33°C° 0 mm 6 mps 737 mmHg 71%
08:00 +34°C° 0 mm 7 mps 738 mmHg 67%
09:00 +35°C° 0 mm 7 mps 737 mmHg 62%
10:00 +36°C° 0 mm 7 mps 737 mmHg 58%
11:00 +39°C° 0 mm 7 mps 737 mmHg 54%
12:00 +39°C° 0 mm 7 mps 737 mmHg 51%
13:00 +40°C° 0 mm 6 mps 736 mmHg 49%
14:00 +41°C° 0 mm 6 mps 736 mmHg 47%
15:00 +40°C° 0 mm 6 mps 735 mmHg 50%
16:00 +39°C° 0 mm 5 mps 735 mmHg 53%
17:00 +37°C° 0 mm 5 mps 735 mmHg 56%
18:00 +36°C° 0 mm 5 mps 735 mmHg 60%
19:00 +35°C° 0 mm 4 mps 736 mmHg 64%
20:00 +34°C° 0 mm 3 mps 736 mmHg 68%
21:00 +34°C° 0 mm 3 mps 736 mmHg 70%
22:00 +34°C° 0 mm 3 mps 736 mmHg 71%
23:00 +33°C° 0 mm 3 mps 736 mmHg 73%

Day after tomorrow, 26 July, Monday

Time Temperature Precipitation Wind Pressure Humidity
00:00 +33°C° 0 mm 3 mps 736 mmHg 74%
01:00 +32°C° 0 mm 2 mps 736 mmHg 76%
02:00 +31°C° 0 mm 2 mps 735 mmHg 77%
03:00 +31°C° 0.1 mm 2 mps 735 mmHg 77%
04:00 +31°C° 0.1 mm 2 mps 735 mmHg 78%
05:00 +31°C° 0.1 mm 2 mps 736 mmHg 78%
06:00 +31°C° 0.3 mm 2 mps 736 mmHg 77%
07:00 +31°C° 0.3 mm 3 mps 736 mmHg 77%
08:00 +31°C° 0.3 mm 3 mps 737 mmHg 76%
09:00 +31°C° 0.3 mm 3 mps 737 mmHg 76%
10:00 +31°C° 0.3 mm 3 mps 737 mmHg 76%
11:00 +31°C° 0.3 mm 3 mps 737 mmHg 76%
12:00 +31°C° 0.2 mm 3 mps 736 mmHg 78%
13:00 +31°C° 0.2 mm 3 mps 736 mmHg 79%
14:00 +31°C° 0.2 mm 2 mps 735 mmHg 81%
15:00 +31°C° 0 mm 2 mps 735 mmHg 78%
16:00 +32°C° 0 mm 2 mps 735 mmHg 76%
17:00 +32°C° 0 mm 2 mps 735 mmHg 73%
18:00 +31°C° 0 mm 2 mps 735 mmHg 76%
19:00 +31°C° 0 mm 2 mps 735 mmHg 78%
20:00 +30°C° 0 mm 2 mps 735 mmHg 81%
21:00 +30°C° 0 mm 1 mps 736 mmHg 81%
22:00 +30°C° 0 mm 1 mps 736 mmHg 82%
23:00 +30°C° 0 mm 1 mps 736 mmHg 83%

27 July, Tuesday

Time Temperature Precipitation Wind Pressure Humidity
00:00 +30°C° 0 mm 1 mps 735 mmHg 83%
01:00 +30°C° 0 mm 1 mps 735 mmHg 83%
02:00 +30°C° 0 mm 1 mps 735 mmHg 83%
03:00 +30°C° 0 mm 1 mps 735 mmHg 83%
04:00 +30°C° 0 mm 1 mps 735 mmHg 83%
05:00 +30°C° 0 mm 1 mps 735 mmHg 83%
06:00 +30°C° 0 mm 1 mps 735 mmHg 82%
07:00 +30°C° 0 mm 1 mps 735 mmHg 81%
08:00 +30°C° 0 mm 1 mps 735 mmHg 80%
09:00 +31°C° 0 mm 1 mps 735 mmHg 76%
10:00 +32°C° 0 mm 2 mps 735 mmHg 72%
11:00 +34°C° 0 mm 2 mps 735 mmHg 68%
12:00 +34°C° 0.5 mm 2 mps 735 mmHg 67%
13:00 +34°C° 0.5 mm 3 mps 734 mmHg 66%
14:00 +35°C° 0.5 mm 3 mps 734 mmHg 65%
15:00 +34°C° 0.9 mm 3 mps 734 mmHg 67%
16:00 +34°C° 0.9 mm 3 mps 734 mmHg 68%
17:00 +33°C° 0.9 mm 3 mps 734 mmHg 70%
18:00 +33°C° 1.2 mm 3 mps 734 mmHg 75%
19:00 +31°C° 1.2 mm 3 mps 735 mmHg 80%
20:00 +30°C° 1.2 mm 3 mps 735 mmHg 85%
21:00 +29°C° 0.5 mm 4 mps 735 mmHg 86%
22:00 +29°C° 0.5 mm 4 mps 735 mmHg 87%
23:00 +29°C° 0.5 mm 4 mps 736 mmHg 89%

28 July, Wednesday

Time Temperature Precipitation Wind Pressure Humidity
00:00 +28°C° 0.3 mm 4 mps 735 mmHg 89%
01:00 +28°C° 0.3 mm 3 mps 735 mmHg 90%
02:00 +28°C° 0.3 mm 3 mps 735 mmHg 91%
03:00 +28°C° 1.9 mm 2 mps 735 mmHg 92%
04:00 +28°C° 1.9 mm 2 mps 735 mmHg 92%
05:00 +27°C° 1.9 mm 2 mps 735 mmHg 93%
06:00 +27°C° 2.7 mm 2 mps 735 mmHg 93%
07:00 +28°C° 2.7 mm 2 mps 736 mmHg 93%
08:00 +28°C° 2.7 mm 2 mps 737 mmHg 92%
09:00 +28°C° 0.9 mm 2 mps 737 mmHg 91%
10:00 +28°C° 0.9 mm 2 mps 737 mmHg 90%
11:00 +29°C° 0.9 mm 2 mps 736 mmHg 88%
12:00 +29°C° 0.3 mm 2 mps 736 mmHg 86%
13:00 +29°C° 0.3 mm 3 mps 736 mmHg 85%
14:00 +30°C° 0.3 mm 3 mps 735 mmHg 83%
15:00 +30°C° 0.3 mm 3 mps 735 mmHg 84%
16:00 +30°C° 0.3 mm 3 mps 735 mmHg 84%
17:00 +30°C° 0.3 mm 3 mps 734 mmHg 84%
18:00 +29°C° 0.1 mm 3 mps 735 mmHg 86%
19:00 +29°C° 0.1 mm 3 mps 735 mmHg 88%
20:00 +29°C° 0.1 mm 2 mps 736 mmHg 89%
21:00 +28°C° 0 mm 2 mps 736 mmHg 90%
22:00 +28°C° 0 mm 2 mps 736 mmHg 91%
23:00 +28°C° 0 mm 2 mps 736 mmHg 92%

29 July, Thursday

Time Temperature Precipitation Wind Pressure Humidity
00:00 +28°C° 0.1 mm 2 mps 736 mmHg 92%
01:00 +28°C° 0.1 mm 2 mps 736 mmHg 92%
02:00 +28°C° 0.1 mm 1 mps 735 mmHg 92%
03:00 +28°C° 0.1 mm 1 mps 735 mmHg 92%
04:00 +28°C° 0.1 mm 1 mps 735 mmHg 92%
05:00 +28°C° 0.1 mm 1 mps 735 mmHg 92%
06:00 +28°C° 0 mm 1 mps 736 mmHg 91%
07:00 +29°C° 0 mm 1 mps 736 mmHg 89%
08:00 +29°C° 0 mm 1 mps 736 mmHg 88%
09:00 +30°C° 0 mm 1 mps 736 mmHg 84%
10:00 +31°C° 0 mm 1 mps 736 mmHg 80%
11:00 +31°C° 0 mm 1 mps 736 mmHg 76%
12:00 +32°C° 0.2 mm 1 mps 735 mmHg 73%
13:00 +33°C° 0.2 mm 1 mps 735 mmHg 70%
14:00 +33°C° 0.2 mm 1 mps 735 mmHg 68%
15:00 +33°C° 1 mm 1 mps 735 mmHg 67%
16:00 +34°C° 1 mm 1 mps 735 mmHg 67%
17:00 +34°C° 1 mm 1 mps 734 mmHg 67%
18:00 +33°C° 1.3 mm 1 mps 735 mmHg 71%
19:00 +32°C° 1.3 mm 2 mps 735 mmHg 75%
20:00 +31°C° 1.3 mm 2 mps 736 mmHg 79%
21:00 +31°C° 1.3 mm 2 mps 736 mmHg 81%
22:00 +30°C° 1.3 mm 1 mps 736 mmHg 82%
23:00 +30°C° 1.3 mm 1 mps 736 mmHg 84%
Show more